Localtime,UTC,Spice_Time,Block,CCSDS_Header,CCSDS_Version,CCSDS_PacketType,CCSDS_SecHdrFlag,CCSDS_ApID,CCSDS_GroupFlags,CCSDS_SeqCnt,CCSDS_PacketLen,CCSDS_MET,CCSDS_Data,IMON_IDPU,IMON_BEB,TMON_LVPS,IMON_FVX,IMON_FVY,IMON_FVZ,VMON_BEB_P10VA,VMON_BEB_N10VA,VMON_BEB_P5VA,VMON_BEB_P5VD,VMON_IDPU_P10VA,VMON_IDPU_N10VA,VMON_IDPU_P5VA,VMON_IDPU_N5VA,VMON_IDPU_P5VD,VMON_IDPU_P36VD,VMON_IDPU_P18VD,TMON_AXB5,TMON_AXB6,TEMP_FPGA,P33VD,P33IMON,P15VD,P15IMON,DGND,SPARE
1972-02-24T14:47:21,1972-02-24T22:47:21Z,2012-02-24T22:47:21Z,0,0,0,0,1,612,3,1,29,67819641,0,0.148299174157,0.299999405583,-16.2752950772,0.123046875,0.14453125,0.125,10.67873,-10.87467,5.036906,4.894592,10.67873,-10.87467,4.841298,-4.9902,5.139102,3.88102,2.480437,177.500385694,177.500385694,-16.8604383575,3.300024,123.6,1.48434375,74.16,0.0,0
1972-02-24T14:47:37,1972-02-24T22:47:37Z,2012-02-24T22:47:37Z,0,0,0,0,1,612,3,2,29,67819657,0,0.151395097247,0.296903482493,-14.75072,0.12109375,0.140625,0.125,10.67873,-10.87467,5.036906,4.894592,10.67873,-10.87467,4.841298,-4.9902,5.139102,3.88102,2.480437,166.4616505,177.500385694,-15.5941442734,3.300024,117.42,1.48434375,74.16,-0.01953125,0
1972-02-24T14:47:53,1972-02-24T22:47:53Z,2012-02-24T22:47:53Z,0,0,0,0,1,612,3,3,29,67819673,0,0.151395097247,0.296903482493,-13.4302877912,0.119140625,0.1484375,0.123046875,10.67873,-10.87467,5.036906,4.894592,10.67873,-10.87467,4.841298,-4.9902,5.139102,3.845738,2.480437,177.500385694,177.500385694,-15.5941442734,3.300024,117.42,1.48434375,80.34,-0.01953125,0
1972-02-24T14:48:09,1972-02-24T22:48:09Z,2012-02-24T22:48:09Z,0,0,0,0,1,612,3,4,29,67819689,0,0.151395097247,0.296903482493,-12.8474289817,0.12109375,0.140625,0.125,10.67873,-10.87467,5.036906,4.894592,10.67873,-10.7767,4.841298,-4.9902,5.139102,3.88102,2.480437,177.500385694,177.500385694,-15.5941442734,3.300024,117.42,1.48434375,74.16,0.0,0
1972-02-24T14:48:25,1972-02-24T22:48:25Z,2012-02-24T22:48:25Z,0,0,0,0,1,612,3,5,29,67819705,0,0.151395097247,0.293807559403,-11.8309082031,0.12109375,0.140625,0.125,10.67873,-10.87467,5.036906,4.894592,10.67873,-10.7767,4.841298,-4.9902,5.139102,3.845738,2.480437,177.500385694,177.500385694,-15.5941442734,3.300024,117.42,1.48434375,80.34,0.0,0
1972-02-24T14:48:41,1972-02-24T22:48:41Z,2012-02-24T22:48:41Z,0,0,0,0,1,612,3,6,29,67819721,0,0.151395097247,0.293807559403,-11.3927705297,0.123046875,0.142578125,0.123046875,10.67873,-10.87467,5.036906,4.894592,10.67873,-10.7767,4.841298,-4.9902,5.139102,3.845738,2.480437,177.500385694,166.4616505,-15.5941442734,3.300024,117.42,1.48434375,74.16,-0.01953125,0
1972-02-24T14:48:57,1972-02-24T22:48:57Z,2012-02-24T22:48:57Z,0,0,0,0,1,612,3,7,29,67819737,0,0.151395097247,0.293807559403,-10.9972441808,0.119140625,0.138671875,0.125,10.67873,-10.87467,5.036906,4.894592,10.67873,-10.7767,4.841298,-4.9902,5.139102,3.845738,2.480437,177.500385694,177.500385694,-15.5941442734,3.300024,117.42,1.48434375,74.16,0.0,0
1972-02-24T14:49:13,1972-02-24T22:49:13Z,2012-02-24T22:49:13Z,0,0,0,0,1,612,3,8,29,67819753,0,0.151395097247,0.293807559403,-10.640441172,0.12109375,0.142578125,0.123046875,10.67873,-10.87467,5.036906,4.894592,10.67873,-10.7767,4.841298,-4.9902,5.139102,3.845738,2.480437,177.500385694,177.500385694,-15.5941442734,3.300024,117.42,1.48434375,74.16,0.0,0
1972-02-24T14:49:29,1972-02-24T22:49:29Z,2012-02-24T22:49:29Z,0,0,0,0,1,612,3,9,29,67819769,0,0.154491020337,0.290711636312,-10.3179161104,0.123046875,0.142578125,0.125,10.67873,-10.87467,5.036906,4.894592,10.67873,-10.7767,4.841298,-4.9902,5.139102,3.845738,2.480437,177.500385694,177.500385694,-15.5941442734,3.300024,117.42,1.48434375,74.16,0.0,0
1972-02-24T14:49:45,1972-02-24T22:49:45Z,2012-02-24T22:49:45Z,0,0,0,0,1,612,3,10,29,67819785,0,0.151395097247,0.293807559403,-10.02473,0.12109375,0.140625,0.123046875,10.67873,-10.87467,5.036906,4.894592,10.67873,-10.7767,4.841298,-4.9902,5.139102,3.845738,2.480437,177.500385694,177.500385694,-15.5941442734,3.300024,117.42,1.48434375,80.34,-0.01953125,0
1972-02-24T14:50:01,1972-02-24T22:50:01Z,2012-02-24T22:50:01Z,0,0,0,0,1,612,3,11,29,67819801,0,0.151395097247,0.290711636312,-9.75551760638,0.123046875,0.138671875,0.125,10.67873,-10.87467,5.036906,4.894592,10.67873,-10.7767,4.841298,-4.9902,5.139102,3.845738,2.480437,-10.1276056519,-6.27544398899,-16.8604383575,3.300024,129.78,1.52340625,86.52,0.01953125,0
1972-02-24T14:50:17,1972-02-24T22:50:17Z,2012-02-24T22:50:17Z,0,0,0,0,1,612,3,12,29,67819817,0,0.151395097247,0.290711636312,-9.50455782195,0.123046875,0.140625,0.125,10.67873,-10.87467,5.036906,4.894592,10.67873,-10.7767,4.841298,-4.9902,5.139102,3.845738,2.480437,-10.1276056519,-6.27544398899,-16.8604383575,3.300024,123.6,1.52340625,86.52,0.01953125,0
1972-02-24T14:50:33,1972-02-24T22:50:33Z,2012-02-24T22:50:33Z,0,0,0,0,1,612,3,13,29,67819833,0,0.151395097247,0.290711636312,-9.50455782195,0.12109375,0.142578125,0.125,10.67873,-10.87467,5.036906,4.894592,10.67873,-10.7767,4.841298,-4.9902,5.139102,3.845738,2.480437,-10.1276056519,-6.27544398899,-16.8604383575,3.300024,129.78,1.52340625,86.52,0.01953125,0
1972-02-24T14:50:49,1972-02-24T22:50:49Z,2012-02-24T22:50:49Z,0,0,0,0,1,612,3,14,29,67819849,0,0.151395097247,0.290711636312,-9.26584647185,0.12109375,0.140625,0.125,10.67873,-10.87467,5.036906,4.894592,10.67873,-10.7767,4.841298,-4.9902,5.139102,3.845738,2.480437,-10.1276056519,-6.27544398899,-16.8604383575,3.300024,129.78,1.52340625,86.52,0.01953125,0
1972-02-24T14:51:05,1972-02-24T22:51:05Z,2012-02-24T22:51:05Z,0,0,0,0,1,612,3,15,29,67819865,0,0.154491020337,0.290711636312,-9.03317100122,0.12109375,0.142578125,0.125,10.67873,-10.87467,5.036906,4.894592,10.67873,-10.7767,4.841298,-4.9902,5.139102,3.845738,2.480437,-10.1276056519,-6.27544398899,-16.8604383575,3.300024,123.6,1.52340625,86.52,0.01953125,0
1972-02-24T14:51:21,1972-02-24T22:51:21Z,2012-02-24T22:51:21Z,0,0,0,0,1,612,3,16,29,67819881,0,0.151395097247,0.290711636312,-8.80018648438,0.12109375,0.140625,0.125,10.67873,-10.87467,5.036906,4.894592,10.67873,-10.7767,4.841298,-4.9902,5.139102,3.845738,2.480437,-10.1276056519,-6.27544398899,-15.5941442734,3.300024,123.6,1.52340625,86.52,0.01953125,0
1972-02-24T14:51:37,1972-02-24T22:51:37Z,2012-02-24T22:51:37Z,0,0,0,0,1,612,3,17,29,67819897,0,0.154491020337,0.287615713222,-8.80018648438,0.123046875,0.142578125,0.125,10.67873,-10.87467,5.036906,4.894592,10.67873,-10.7767,4.841298,-4.9902,5.139102,3.845738,2.480437,-10.1276056519,-6.27544398899,-15.5941442734,3.300024,129.78,1.52340625,86.52,0.01953125,0
1972-02-24T14:51:53,1972-02-24T22:51:53Z,2012-02-24T22:51:53Z,0,0,0,0,1,612,3,18,29,67819913,0,0.151395097247,0.290711636312,-8.56049239654,0.12109375,0.142578125,0.125,10.67873,-10.87467,5.036906,4.894592,10.67873,-10.7767,4.841298,-4.9902,5.139102,3.845738,2.480437,-10.1276056519,-6.27544398899,-15.5941442734,3.300024,129.78,1.52340625,86.52,0.01953125,0
1972-02-24T14:52:09,1972-02-24T22:52:09Z,2012-02-24T22:52:09Z,0,0,0,0,1,612,3,19,29,67819929,0,0.154491020337,0.290711636312,-8.30770958854,0.12109375,0.140625,0.125,10.67873,-10.87467,5.036906,4.894592,10.67873,-10.7767,4.841298,-4.9902,5.139102,3.845738,2.480437,-10.1276056519,-6.27544398899,-15.5941442734,3.300024,129.78,1.52340625,86.52,0.01953125,0
1972-02-24T14:52:25,1972-02-24T22:52:25Z,2012-02-24T22:52:25Z,0,0,0,0,1,612,3,20,29,67819945,0,0.154491020337,0.287615713222,-8.03555690509,0.123046875,0.142578125,0.125,10.67873,-10.87467,5.036906,4.894592,10.67873,-10.7767,4.841298,-4.9902,5.139102,3.845738,2.480437,-10.1276056519,-6.27544398899,-15.5941442734,3.300024,129.78,1.52340625,86.52,0.01953125,0
1972-02-24T14:52:41,1972-02-24T22:52:41Z,2012-02-24T22:52:41Z,0,0,0,0,1,612,3,21,29,67819961,0,0.154491020337,0.287615713222,-8.03555690509,0.123046875,0.142578125,0.125,10.67873,-10.87467,5.036906,4.894592,10.67873,-10.7767,4.841298,-4.9902,5.139102,3.845738,2.480437,-10.1276056519,-6.27544398899,-15.5941442734,3.300024,129.78,1.52340625,86.52,0.01953125,0
1972-02-24T14:52:57,1972-02-24T22:52:57Z,2012-02-24T22:52:57Z,0,0,0,0,1,612,3,22,29,67819977,0,0.154491020337,0.287615713222,-7.73792688733,0.123046875,0.140625,0.125,10.67873,-10.87467,5.036906,4.894592,10.67873,-10.7767,4.841298,-4.9902,5.139102,3.845738,2.480437,-10.1276056519,-6.27544398899,-15.5941442734,3.300024,129.78,1.52340625,86.52,0.01953125,0
1972-02-24T14:53:13,1972-02-24T22:53:13Z,2012-02-24T22:53:13Z,0,0,0,0,1,612,3,23,29,67819993,0,0.154491020337,0.287615713222,-7.73792688733,0.123046875,0.14453125,0.125,10.67873,-10.87467,5.036906,4.894592,10.67873,-10.7767,4.841298,-4.9902,5.139102,3.845738,2.480437,-10.1276056519,-6.27544398899,-15.5941442734,3.300024,129.78,1.52340625,86.52,0.01953125,0
1972-02-24T14:53:29,1972-02-24T22:53:29Z,2012-02-24T22:53:29Z,0,0,0,0,1,612,3,24,29,67820009,0,0.154491020337,0.287615713222,-7.40896,0.123046875,0.142578125,0.125,10.67873,-10.87467,5.036906,4.894592,10.67873,-10.7767,4.841298,-4.9902,5.139102,3.845738,2.480437,-10.1276056519,-6.27544398899,-15.5941442734,3.300024,129.78,1.52340625,86.52,0.01953125,0
1972-02-24T14:53:45,1972-02-24T22:53:45Z,2012-02-24T22:53:45Z,0,0,0,0,1,612,3,25,29,67820025,0,0.154491020337,0.287615713222,-7.04311682391,0.123046875,0.142578125,0.125,10.67873,-10.87467,5.036906,4.894592,10.67873,-10.7767,4.841298,-4.9902,5.139102,3.845738,2.480437,-10.1276056519,-6.27544398899,-15.5941442734,3.300024,123.6,1.52340625,86.52,0.01953125,0
1972-02-24T14:54:01,1972-02-24T22:54:01Z,2012-02-24T22:54:01Z,0,0,0,0,1,612,3,26,29,67820041,0,0.154491020337,0.287615713222,-7.04311682391,0.12109375,0.142578125,0.125,10.67873,-10.87467,5.036906,4.894592,10.67873,-10.7767,4.841298,-4.9902,5.139102,3.845738,2.480437,-10.1276056519,-6.27544398899,-15.5941442734,3.300024,123.6,1.52340625,86.52,0.01953125,0
1972-02-24T14:54:17,1972-02-24T22:54:17Z,2012-02-24T22:54:17Z,0,0,0,0,1,612,3,27,29,67820057,0,0.154491020337,0.287615713222,-6.63524765427,0.12109375,0.142578125,0.125,10.67873,-10.87467,5.036906,4.894592,10.67873,-10.7767,4.841298,-4.9902,5.139102,3.845738,2.480437,-10.1276056519,-6.27544398899,-15.5941442734,3.300024,123.6,1.52340625,86.52,0.01953125,0
1972-02-24T14:54:33,1972-02-24T22:54:33Z,2012-02-24T22:54:33Z,0,0,0,0,1,612,3,28,29,67820073,0,0.151395097247,0.287615713222,-6.63524765427,0.12109375,0.142578125,0.125,10.67873,-10.87467,5.036906,4.894592,10.67873,-10.7767,4.841298,-4.9902,5.139102,3.845738,2.480437,-10.1276056519,-6.27544398899,-15.5941442734,3.300024,123.6,1.52340625,86.52,0.01953125,0
1972-02-24T14:54:49,1972-02-24T22:54:49Z,2012-02-24T22:54:49Z,0,0,0,0,1,612,3,29,29,67820089,0,0.154491020337,0.287615713222,-6.18065894542,0.12109375,0.140625,0.125,10.67873,-10.87467,5.036906,4.894592,10.67873,-10.7767,4.841298,-4.9902,5.139102,3.845738,2.480437,-10.1276056519,-6.27544398899,-15.5941442734,3.300024,123.6,1.52340625,86.52,0.01953125,0
1972-02-24T14:55:05,1972-02-24T22:55:05Z,2012-02-24T22:55:05Z,0,0,0,0,1,612,3,30,29,67820105,0,0.154491020337,0.284519790132,-6.18065894542,0.123046875,0.14453125,0.126953125,10.67873,-10.87467,5.036906,4.894592,10.67873,-10.7767,4.841298,-4.9902,5.139102,3.845738,2.480437,-10.1276056519,-6.27544398899,-15.5941442734,3.300024,123.6,1.52340625,86.52,0.01953125,0
1972-02-24T14:55:21,1972-02-24T22:55:21Z,2012-02-24T22:55:21Z,0,0,0,0,1,612,3,31,29,67820121,0,0.154491020337,0.284519790132,-5.6751760425,0.12109375,0.142578125,0.125,10.67873,-10.87467,5.036906,4.894592,10.67873,-10.7767,4.841298,-4.9902,5.139102,3.845738,2.480437,-10.1276056519,-6.27544398899,-15.5941442734,3.300024,123.6,1.52340625,86.52,0.01953125,0
1972-02-24T14:55:37,1972-02-24T22:55:37Z,2012-02-24T22:55:37Z,0,0,0,0,1,612,3,32,29,67820137,0,0.154491020337,0.284519790132,-5.6751760425,0.12109375,0.14453125,0.125,10.67873,-10.87467,5.036906,4.894592,10.67873,-10.7767,4.841298,-4.9902,5.139102,3.845738,2.480437,-10.1276056519,-6.27544398899,-15.5941442734,3.300024,123.6,1.52340625,86.52,0.01953125,0
1972-02-24T14:55:53,1972-02-24T22:55:53Z,2012-02-24T22:55:53Z,0,0,0,0,1,612,3,33,29,67820153,0,0.154491020337,0.284519790132,-5.11520164062,0.123046875,0.142578125,0.125,10.67873,-10.87467,5.036906,4.894592,10.67873,-10.7767,4.841298,-4.9902,5.139102,3.845738,2.480437,-10.1276056519,-6.27544398899,-15.5941442734,3.300024,123.6,1.52340625,86.52,0.01953125,0
1972-02-24T14:56:09,1972-02-24T22:56:09Z,2012-02-24T22:56:09Z,0,0,0,0,1,612,3,34,29,67820169,0,0.154491020337,0.284519790132,-5.11520164062,0.123046875,0.142578125,0.125,10.67873,-10.87467,5.036906,4.894592,10.67873,-10.7767,4.841298,-4.9902,5.139102,3.845738,2.480437,-10.1276056519,-6.27544398899,-15.5941442734,3.300024,123.6,1.52340625,86.52,0.01953125,0
1972-02-24T14:56:25,1972-02-24T22:56:25Z,2012-02-24T22:56:25Z,0,0,0,0,1,612,3,35,29,67820185,0,0.154491020337,0.284519790132,-4.49776941222,0.12109375,0.140625,0.125,10.67873,-10.87467,5.036906,4.894592,10.67873,-10.7767,4.841298,-4.9902,5.139102,3.845738,2.480437,-10.1276056519,-6.27544398899,-15.5941442734,3.300024,123.6,1.52340625,86.52,0.01953125,0
1972-02-24T14:56:41,1972-02-24T22:56:41Z,2012-02-24T22:56:41Z,0,0,0,0,1,612,3,36,29,67820201,0,0.154491020337,0.284519790132,-4.49776941222,0.123046875,0.14453125,0.126953125,10.67873,-10.87467,5.036906,4.894592,10.67873,-10.7767,4.841298,-4.9902,5.139102,3.845738,2.480437,-10.1276056519,-6.27544398899,-15.5941442734,3.300024,123.6,1.52340625,86.52,0.01953125,0
1972-02-24T14:56:57,1972-02-24T22:56:57Z,2012-02-24T22:56:57Z,0,0,0,0,1,612,3,37,29,67820217,0,0.160682866518,0.284519790132,-3.82059224291,0.123046875,0.142578125,0.125,10.67873,-10.87467,5.036906,4.894592,10.67873,-10.7767,4.841298,-4.9902,5.139102,3.88102,2.480437,-10.1276056519,-6.27544398899,-15.5941442734,3.300024,123.6,1.52340625,86.52,0.01953125,0
1972-02-24T14:57:13,1972-02-24T22:57:13Z,2012-02-24T22:57:13Z,0,0,0,0,1,612,3,38,29,67820233,0,0.160682866518,0.284519790132,-3.82059224291,0.125,0.14453125,0.125,10.67873,-10.87467,5.036906,4.894592,10.67873,-10.7767,4.841298,-4.9902,5.139102,3.88102,2.480437,-10.1276056519,-6.27544398899,-15.5941442734,3.300024,117.42,1.52340625,86.52,0.01953125,0
1972-02-24T14:57:29,1972-02-24T22:57:29Z,2012-02-24T22:57:29Z,0,0,0,0,1,612,3,39,29,67820249,0,0.160682866518,0.284519790132,-3.82059224291,0.12109375,0.14453125,0.126953125,10.67873,-10.87467,5.036906,4.894592,10.67873,-10.7767,4.841298,-4.9902,5.139102,3.88102,2.480437,-10.1276056519,-6.27544398899,-15.5941442734,3.300024,129.78,1.52340625,86.52,0.01953125,0
1972-02-24T14:57:45,1972-02-24T22:57:45Z,2012-02-24T22:57:45Z,0,0,0,0,1,612,3,40,29,67820265,0,0.160682866518,0.284519790132,-3.08210451661,0.125,0.14453125,0.125,10.67873,-10.87467,5.036906,4.894592,10.67873,-10.7767,4.841298,-4.9902,5.139102,3.88102,2.480437,-10.1276056519,-6.27544398899,-15.5941442734,3.300024,117.42,1.52340625,86.52,0.01953125,0
1972-02-24T14:58:01,1972-02-24T22:58:01Z,2012-02-24T22:58:01Z,0,0,0,0,1,612,3,41,29,67820281,0,0.163778789608,0.281423867041,-3.08210451661,0.12109375,0.142578125,0.126953125,10.67873,-10.87467,5.036906,4.894592,10.67873,-10.7767,4.841298,-4.9902,5.139102,3.88102,2.480437,-10.1276056519,-6.27544398899,-15.5941442734,3.300024,117.42,1.52340625,86.52,0.01953125,0
1972-02-24T14:58:17,1972-02-24T22:58:17Z,2012-02-24T22:58:17Z,0,0,0,0,1,612,3,42,29,67820297,0,0.160682866518,0.284519790132,-2.28149789046,0.123046875,0.142578125,0.125,10.67873,-10.87467,5.036906,4.894592,10.67873,-10.7767,4.841298,-4.9902,5.139102,3.88102,2.480437,-10.1276056519,-6.27544398899,-15.5941442734,3.300024,117.42,1.52340625,86.52,0.01953125,0
1972-02-24T14:58:33,1972-02-24T22:58:33Z,2012-02-24T22:58:33Z,0,0,0,0,1,612,3,43,29,67820313,0,0.160682866518,0.281423867041,-2.28149789046,0.123046875,0.142578125,0.126953125,10.67873,-10.87467,5.036906,4.894592,10.67873,-10.7767,4.841298,-4.9902,5.139102,3.88102,2.480437,-10.1276056519,-6.27544398899,-15.5941442734,3.300024,117.42,1.52340625,86.52,0.01953125,0
1972-02-24T14:58:49,1972-02-24T22:58:49Z,2012-02-24T22:58:49Z,0,0,0,0,1,612,3,44,29,67820329,0,0.163778789608,0.281423867041,-2.28149789046,0.125,0.14453125,0.126953125,10.67873,-10.87467,5.036906,4.894592,10.67873,-10.7767,4.841298,-4.9902,5.139102,3.88102,2.480437,-10.1276056519,-6.27544398899,-15.5941442734,3.300024,117.42,1.52340625,86.52,0.01953125,0
1972-02-24T14:59:05,1972-02-24T22:59:05Z,2012-02-24T22:59:05Z,0,0,0,0,1,612,3,45,29,67820345,0,0.160682866518,0.281423867041,-1.41875,0.125,0.146484375,0.126953125,10.67873,-10.87467,5.036906,4.894592,10.67873,-10.7767,4.841298,-4.9902,5.139102,3.88102,2.480437,-10.1276056519,-6.27544398899,-15.5941442734,3.300024,117.42,1.52340625,86.52,0.01953125,0
1972-02-24T14:59:21,1972-02-24T22:59:21Z,2012-02-24T22:59:21Z,0,0,0,0,1,612,3,46,29,67820361,0,0.169970635789,0.281423867041,-1.41875,0.12109375,0.14453125,0.126953125,10.67873,-10.87467,5.036906,4.894592,10.67873,-10.7767,4.841298,-4.9902,5.139102,3.845738,2.480437,-10.1276056519,-6.27544398899,-15.5941442734,3.300024,154.5,1.52340625,86.52,0.01953125,0
1972-02-24T14:59:37,1972-02-24T22:59:37Z,2012-02-24T22:59:37Z,0,0,0,0,1,612,3,47,29,67820377,0,0.160682866518,0.284519790132,-1.41875,0.12109375,0.14453125,0.126953125,10.67873,-10.87467,5.036906,4.894592,10.67873,-10.7767,4.841298,-4.9902,5.139102,3.88102,2.480437,-10.1276056519,-6.27544398899,-15.5941442734,3.300024,117.42,1.52340625,86.52,0.01953125,0
1972-02-24T14:59:53,1972-02-24T22:59:53Z,2012-02-24T22:59:53Z,0,0,0,0,1,612,3,48,29,67820393,0,0.160682866518,0.281423867041,-0.494645535239,0.123046875,0.14453125,0.126953125,10.67873,-10.87467,5.036906,4.894592,10.67873,-10.7767,4.841298,-4.9902,5.139102,3.88102,2.480437,-10.1276056519,-6.27544398899,-15.5941442734,3.300024,117.42,1.52340625,86.52,0.01953125,0
1972-02-24T15:00:09,1972-02-24T23:00:09Z,2012-02-24T23:00:09Z,0,0,0,0,1,612,3,49,29,67820409,0,0.163778789608,0.281423867041,-0.494645535239,0.125,0.14453125,0.126953125,10.67873,-10.87467,5.036906,4.894592,10.67873,-10.7767,4.841298,-4.9902,5.139102,3.88102,2.480437,-10.1276056519,-6.27544398899,-15.5941442734,3.300024,117.42,1.52340625,86.52,0.01953125,0
1972-02-24T15:00:25,1972-02-24T23:00:25Z,2012-02-24T23:00:25Z,0,0,0,0,1,612,3,50,29,67820425,0,0.160682866518,0.281423867041,0.489210871808,0.125,0.14453125,0.125,10.67873,-10.87467,5.036906,4.894592,10.67873,-10.7767,4.841298,-4.9902,5.139102,3.88102,2.480437,-10.1276056519,-6.27544398899,-15.5941442734,3.300024,117.42,1.52340625,86.52,0.01953125,0
1972-02-24T15:00:41,1972-02-24T23:00:41Z,2012-02-24T23:00:41Z,0,0,0,0,1,612,3,51,29,67820441,0,0.160682866518,0.281423867041,0.489210871808,0.123046875,0.142578125,0.125,10.67873,-10.87467,5.036906,4.894592,10.67873,-10.7767,4.841298,-4.9902,5.139102,3.88102,2.480437,-10.1276056519,-6.27544398899,-15.5941442734,3.300024,117.42,1.52340625,86.52,0.01953125,0
1972-02-24T15:00:57,1972-02-24T23:00:57Z,2012-02-24T23:00:57Z,0,0,0,0,1,612,3,52,29,67820457,0,0.160682866518,0.281423867041,0.489210871808,0.12109375,0.146484375,0.126953125,10.67873,-10.87467,5.036906,4.894592,10.67873,-10.7767,4.841298,-4.9902,5.139102,3.88102,2.480437,-10.1276056519,-6.27544398899,-15.5941442734,3.300024,117.42,1.52340625,86.52,0.01953125,0
1972-02-24T15:01:13,1972-02-24T23:01:13Z,2012-02-24T23:01:13Z,0,0,0,0,1,612,3,53,29,67820473,0,0.160682866518,0.281423867041,0.489210871808,0.123046875,0.142578125,0.126953125,10.67873,-10.87467,5.036906,4.894592,10.67873,-10.7767,4.841298,-4.9902,5.139102,3.88102,2.480437,-10.1276056519,-6.27544398899,-15.5941442734,3.300024,117.42,1.52340625,86.52,0.01953125,0
1972-02-24T15:01:29,1972-02-24T23:01:29Z,2012-02-24T23:01:29Z,0,0,0,0,1,612,3,54,29,67820489,0,0.160682866518,0.281423867041,1.53039050761,0.123046875,0.14453125,0.126953125,10.67873,-10.87467,5.036906,4.894592,10.67873,-10.7767,4.841298,-4.9902,5.139102,3.88102,2.480437,-10.1276056519,-6.27544398899,-15.5941442734,3.300024,117.42,1.52340625,86.52,0.01953125,0
1972-02-24T15:01:45,1972-02-24T23:01:45Z,2012-02-24T23:01:45Z,0,0,0,0,1,612,3,55,29,67820505,0,0.160682866518,0.281423867041,1.53039050761,0.125,0.142578125,0.126953125,10.67873,-10.87467,5.036906,4.894592,10.67873,-10.7767,4.841298,-4.9902,5.139102,3.88102,2.480437,-10.1276056519,-6.27544398899,-15.5941442734,3.300024,117.42,1.52340625,86.52,0.01953125,0
1972-02-24T15:02:01,1972-02-24T23:02:01Z,2012-02-24T23:02:01Z,0,0,0,0,1,612,3,56,29,67820521,0,0.160682866518,0.281423867041,1.53039050761,0.125,0.14453125,0.125,10.67873,-10.87467,5.036906,4.894592,10.67873,-10.7767,4.841298,-4.9902,5.139102,3.88102,2.480437,-10.1276056519,-6.27544398899,-15.5941442734,3.300024,117.42,1.52340625,86.52,0.01953125,0
1972-02-24T15:02:17,1972-02-24T23:02:17Z,2012-02-24T23:02:17Z,0,0,0,0,1,612,3,57,29,67820537,0,0.163778789608,0.281423867041,2.62564574502,0.125,0.142578125,0.126953125,10.67873,-10.87467,5.036906,4.894592,10.67873,-10.7767,4.841298,-4.9902,5.139102,3.88102,2.480437,-10.1276056519,-6.27544398899,-15.5941442734,3.300024,117.42,1.52340625,86.52,0.01953125,0
1972-02-24T15:02:33,1972-02-24T23:02:33Z,2012-02-24T23:02:33Z,0,0,0,0,1,612,3,58,29,67820553,0,0.160682866518,0.281423867041,2.62564574502,0.125,0.14453125,0.126953125,10.67873,-10.87467,5.036906,4.894592,10.67873,-10.7767,4.841298,-4.9902,5.139102,3.88102,2.480437,-10.1276056519,-6.27544398899,-15.5941442734,3.300024,117.42,1.52340625,86.52,0.01953125,0
1972-02-24T15:02:49,1972-02-24T23:02:49Z,2012-02-24T23:02:49Z,0,0,0,0,1,612,3,59,29,67820569,0,0.160682866518,0.278327943951,2.62564574502,0.123046875,0.14453125,0.126953125,10.67873,-10.87467,5.036906,4.894592,10.67873,-10.7767,4.841298,-4.9902,5.139102,3.88102,2.480437,-10.1276056519,-6.27544398899,-14.4006925924,3.300024,117.42,1.52340625,86.52,0.01953125,0
1972-02-24T15:03:05,1972-02-24T23:03:05Z,2012-02-24T23:03:05Z,0,0,0,0,1,612,3,60,29,67820585,0,0.160682866518,0.281423867041,2.62564574502,0.123046875,0.14453125,0.126953125,10.67873,-10.87467,5.036906,4.894592,10.67873,-10.7767,4.841298,-4.9902,5.139102,3.88102,2.480437,-10.1276056519,-6.27544398899,-14.4006925924,3.300024,117.42,1.52340625,86.52,0.01953125,0
1972-02-24T15:03:21,1972-02-24T23:03:21Z,2012-02-24T23:03:21Z,0,0,0,0,1,612,3,61,29,67820601,0,0.163778789608,0.278327943951,3.77092507813,0.125,0.142578125,0.126953125,10.67873,-10.87467,5.036906,4.894592,10.67873,-10.7767,4.841298,-4.9902,5.139102,3.88102,2.480437,-10.1276056519,-6.27544398899,-14.4006925924,3.300024,117.42,1.52340625,86.52,0.01953125,0
1972-02-24T15:03:37,1972-02-24T23:03:37Z,2012-02-24T23:03:37Z,0,0,0,0,1,612,3,62,29,67820617,0,0.160682866518,0.278327943951,3.77092507813,0.123046875,0.14453125,0.126953125,10.67873,-10.87467,5.036906,4.894592,10.67873,-10.7767,4.841298,-4.9902,5.139102,3.88102,2.480437,-10.1276056519,-6.27544398899,-14.4006925924,3.300024,117.42,1.52340625,86.52,0.01953125,0
1972-02-24T15:03:53,1972-02-24T23:03:53Z,2012-02-24T23:03:53Z,0,0,0,0,1,612,3,63,29,67820633,0,0.163778789608,0.278327943951,3.77092507813,0.123046875,0.142578125,0.126953125,10.67873,-10.87467,5.036906,4.894592,10.67873,-10.7767,4.841298,-4.9902,5.139102,3.88102,2.480437,-10.1276056519,-6.27544398899,-14.4006925924,3.300024,117.42,1.52340625,86.52,0.01953125,0
1972-02-24T15:04:09,1972-02-24T23:04:09Z,2012-02-24T23:04:09Z,0,0,0,0,1,612,3,64,29,67820649,0,0.160682866518,0.278327943951,4.9613985833,0.125,0.14453125,0.125,10.67873,-10.87467,5.036906,4.894592,10.67873,-10.7767,4.841298,-4.9902,5.139102,3.88102,2.480437,-10.1276056519,-6.27544398899,-14.4006925924,3.300024,117.42,1.52340625,86.52,0.01953125,0
1972-02-24T15:04:25,1972-02-24T23:04:25Z,2012-02-24T23:04:25Z,0,0,0,0,1,612,3,65,29,67820665,0,0.163778789608,0.278327943951,4.9613985833,0.123046875,0.14453125,0.126953125,10.67873,-10.87467,5.036906,4.894592,10.67873,-10.7767,4.841298,-4.9902,5.139102,3.88102,2.480437,-10.1276056519,-6.27544398899,-14.4006925924,3.300024,117.42,1.52340625,86.52,0.01953125,0